{"data":{"norad_id":68646,"epoch":"2026-05-24T19:09:19.829952Z","epoch_age_seconds":86270,"freshness":"FRESH","line1":"1 68646U 26075L   26144.79814618 -.02111825  00000+0 -29898+1 0  9998","line2":"2 68646  88.9877 323.4013 0004095 138.7087 221.4380 13.60932334  6647","mean_motion":13.60932334,"eccentricity":0.0004095,"inclination_deg":88.9877,"raan_deg":323.4013,"arg_perigee_deg":138.7087,"mean_anomaly_deg":221.438,"bstar":-2.9898,"rev_number":664,"period_min":105.80981611096,"perigee_km":1029.2711150069,"apogee_km":1035.3402675711,"semimajor_km":7410.442691289,"source":"CELESTRAK","updated_at":"2026-05-25T13:38:07.992669Z"}}